Tracking 18030 objects as of 28-March-2017
HD Live streaming from Space Station
objects crossing your sky now

CZ-4B DEB

Track CZ-4B DEB now!
10-day predictions


NORAD ID: 36290
Int'l Code: 2008-053L
Perigee: 564.4 km
Apogee: 596.0 km
Inclination: 97.6 °
Period: 96.1 minutes
Semi major axis: 6951 km
RCS: 0.0218 m2 (small)
Launch date: October 25, 2008
Source: People's Republic of China (PRC)
Launch site: Taiyaun Space Center, China (TSC)

Note: This is SATELLITE DEBRIS
Your satellite tracking list
Your tracking list is empty





NASA's NSSDC Master Catalog

Two Line Element Set (TLE):
1 36290U 08053L   17084.78244605 +.00000830 +00000-0 +74732-4 0  9990
2 36290 097.5879 075.8341 0022775 095.2207 265.1616 14.98028857437624
Source of the keplerian elements: AFSPC